VK5KX Weather Reports


time (UTC)temp
F
wind
direction
speed
knots
gust
knots
rain 1hr
in
rain 24hr
in
rain mn
in
humidity
%
barometer
mb
20260505024504 63 139 0.9 4.3 0.00 0.02 0.02 67 1023.9
20260505023008 62 157 0.0 3.5 0.00 0.02 0.02 68 1024.0
20260505021503 62 219 1.7 4.3 0.00 0.03 0.02 70 1024.1
20260505020001 62 182 0.0 4.3 0.00 0.03 0.02 71 1024.2
20260505014609 61 205 0.0 5.2 0.00 0.03 0.02 73 1024.3
20260505013055 60 223 0.0 2.6 0.00 0.03 0.02 81 1024.3
20260505011602 59 158 0.9 2.6 0.00 0.07 0.02 83 1024.1
20260505010049 59 208 0.0 2.6 0.00 0.07 0.02 88 1024.1
20260505004545 58 208 0.0 3.5 0.00 0.07 0.02 91 1024.0
20260505003043 58 172 0.0 0.9 0.00 0.07 0.02 93 1023.8
20260505001542 58 310 0.0 0.0 0.00 0.09 0.02 95 1023.7
20260505000054 58 310 0.0 0.0 0.00 0.09 0.02 95 1023.6
20260504234546 58 310 0.0 0.0 0.00 0.09 0.02 95 1023.6
20260504233055 57 58 0.0 0.0 0.00 0.09 0.02 95 1023.5
20260504231538 57 58 0.0 0.0 0.00 0.09 0.02 95 1023.5
20260504230037 57 58 0.0 0.0 0.00 0.09 0.02 95 1023.4
20260504224537 56 58 0.0 0.0 0.00 0.09 0.02 95 1023.2
20260504223052 56 58 0.0 0.0 0.00 0.09 0.02 95 1023.1
20260504221531 55 58 0.0 0.0 0.01 0.14 0.02 95 1022.9
20260504220028 55 58 0.0 0.0 0.01 0.14 0.02 95 1022.8
20260504214527 55 58 0.0 0.0 0.01 0.14 0.02 95 1022.6
20260504213037 55 58 0.0 0.0 0.01 0.14 0.02 95 1022.5
20260504211529 55 58 0.0 0.0 0.00 0.14 0.02 95 1022.4
20260504210021 55 58 0.0 0.0 0.00 0.14 0.02 95 1022.1
20260504204534 55 58 0.0 0.0 0.00 0.14 0.02 94 1022.0
20260504203022 55 58 0.0 0.0 0.00 0.14 0.02 94 1021.9
20260504201517 55 58 0.0 0.9 0.00 0.17 0.02 94 1021.7
20260504200015 55 58 0.0 1.7 0.00 0.17 0.02 94 1021.7
20260504194514 55 58 0.0 0.9 0.00 0.17 0.02 94 1021.6
20260504193011 55 58 0.0 0.0 0.00 0.17 0.02 94 1021.4
20260504191510 55 58 0.0 0.0 0.00 0.20 0.02 93 1021.3
20260504190010 55 58 0.0 0.9 0.00 0.20 0.02 94 1021.2
20260504184509 56 60 0.0 0.0 0.01 0.20 0.02 94 1021.2
20260504183009 56 60 0.0 0.0 0.01 0.20 0.02 94 1021.1
20260504181513 56 60 0.0 0.0 0.02 0.20 0.02 94 1020.9
20260504180009 56 60 0.0 0.0 0.02 0.20 0.02 94 1021.0
20260504174507 56 60 0.0 0.0 0.01 0.19 0.01 94 1020.9
20260504173006 56 60 0.0 0.0 0.01 0.19 0.01 93 1021.0
20260504171507 56 60 0.0 0.0 0.00 0.24 0.00 94 1021.0
20260504160108 54 60 0.0 0.0 0.00 0.25 0.00 92 1021.0
20260504081510 63 200 0.9 3.5 0.00 0.28 0.27 72 1017.1
20260504044556 67 160 2.6 7.8 0.00 0.28 0.27 65 1015.2
20260504043050 67 125 2.6 12.2 0.00 0.28 0.27 65 1015.0
20260504041546 66 136 3.5 7.8 0.00 0.28 0.27 65 1014.9
20260504040100 66 119 3.5 10.4 0.00 0.28 0.27 67 1015.0
20260504034608 67 188 2.6 7.8 0.00 0.28 0.27 67 1015.0
20260504033040 66 75 2.6 7.0 0.00 0.28 0.27 67 1015.0
20260504031539 66 184 4.3 7.8 0.00 0.28 0.27 69 1015.0
20260504030037 65 204 2.6 7.8 0.00 0.28 0.27 71 1015.1